Location: Mentone
(34.5413°N, 85.5351°W)
Time: 11:38:58
(UTC-05:00)

Vanguard 3 - All Passes

Search period start: 25 August 2016 00:00
Search period end: 04 September 2016 00:00
Orbit: 510 x 3265 km, 33.3° (Epoch: 24 August)

Date Brightness Start Highest point End Pass type
(mag) Time Alt. Az. Time Alt. Az. Time Alt. Az.
25 Aug - 11:59:12 10° SW 12:04:01 30° SSE 12:07:33 10° E daylight
25 Aug - 14:11:18 10° WSW 14:15:17 70° S 14:18:59 10° E daylight
25 Aug - 16:22:51 10° W 16:26:31 57° S 16:31:19 10° ESE daylight
25 Aug - 18:34:18 10° WSW 18:38:08 23° SSW 18:43:36 10° SSE daylight
26 Aug - 10:45:37 10° SSW 10:50:44 21° SSE 10:54:26 10° ESE daylight
26 Aug - 12:57:37 10° WSW 13:02:23 54° SSE 13:06:02 10° E daylight
26 Aug - 15:09:54 10° W 15:13:36 73° S 15:17:35 10° E daylight
26 Aug - 17:21:16 10° W 17:24:53 32° SSW 17:29:52 10° SE daylight
26 Aug - 19:35:14 10° SW 19:37:00 11° SSW 19:39:00 10° S visible
27 Aug - 09:32:31 10° S 09:37:06 15° SSE 09:40:39 10° ESE daylight
27 Aug - 11:43:32 10° SW 11:49:21 39° SSE 11:53:17 10° E daylight
27 Aug - 13:56:28 10° W 14:00:43 75° S 14:04:23 10° E daylight
27 Aug - 16:08:21 10° W 16:11:54 47° SSW 16:16:12 10° ESE daylight
27 Aug - 18:20:30 10° WSW 18:23:27 16° SSW 18:27:11 10° SSE daylight
28 Aug - 08:21:44 10° SSE 08:23:04 10° SSE 08:24:20 10° SE daylight
28 Aug - 10:29:18 10° SW 10:36:01 29° SSE 10:40:26 10° E daylight
28 Aug - 12:42:25 10° WSW 12:47:46 64° S 12:51:34 10° E daylight
28 Aug - 14:55:12 10° W 14:59:02 67° S 15:02:49 10° ESE daylight
28 Aug - 17:07:03 10° WSW 17:10:14 24° SSW 17:14:14 10° SE daylight
29 Aug - 09:15:14 10° SSW 09:22:17 22° SSE 09:27:10 10° ESE daylight
29 Aug - 11:27:52 10° WSW 11:34:40 49° SSE 11:38:56 10° E daylight
29 Aug - 13:41:31 10° W 13:46:08 77° S 13:49:48 10° E daylight
29 Aug - 15:53:50 10° W 15:57:17 38° SSW 16:01:07 10° SE daylight
29 Aug - 18:07:41 10° SW 18:08:44 11° SSW 18:09:51 10° S daylight
30 Aug - 08:01:57 10° S 08:08:10 16° SSE 08:12:55 10° ESE daylight
30 Aug - 10:13:04 10° SW 10:21:14 38° SSE 10:26:15 10° E daylight
30 Aug - 12:27:09 10° WSW 12:33:08 72° S 12:37:07 10° E daylight
30 Aug - 14:40:26 10° W 14:44:27 59° SSW 14:48:05 10° ESE daylight
30 Aug - 16:52:57 10° WSW 16:55:32 17° SSW 16:58:31 10° SSE daylight
31 Aug - 06:52:08 10° SSE 06:53:36 10° SSE 06:54:59 10° SE daylight
31 Aug - 08:58:18 10° SSW 09:07:26 29° SSE 09:13:13 10° E daylight
31 Aug - 11:12:10 10° WSW 11:19:55 59° SSE 11:24:34 10° E daylight
31 Aug - 13:26:28 10° W 13:31:32 76° S 13:35:17 10° E daylight
31 Aug - 15:39:18 10° W 15:42:37 30° SSW 15:46:03 10° SE daylight
01 Sep - 07:44:03 10° SSW 07:53:09 22° SSE 07:59:30 10° ESE daylight
01 Sep - 09:56:51 10° SW 10:06:24 47° SSE 10:11:57 10° E daylight
01 Sep - 12:11:47 10° W 12:18:28 77° S 12:22:40 10° E daylight
01 Sep - 14:25:35 10° W 14:29:49 52° SSW 14:33:24 10° ESE daylight
01 Sep - 16:39:13 10° SW 16:40:47 12° SSW 16:42:27 10° S daylight
02 Sep - 06:31:09 10° S 06:38:28 15° SSE 06:44:17 10° ESE daylight
02 Sep - 08:41:30 10° SW 08:52:27 37° SSE 08:59:03 10° E daylight
02 Sep - 10:56:24 10° WSW 11:05:08 68° S 11:10:09 10° E daylight
02 Sep - 13:11:19 10° W 13:16:54 74° S 13:20:46 10° ESE daylight
02 Sep - 15:24:44 10° W 15:27:55 24° SSW 15:30:58 10° SSE daylight
03 Sep - 07:26:34 10° SSW 07:38:03 29° SSE 07:45:34 10° E daylight
03 Sep - 09:40:37 10° WSW 09:51:29 56° SSE 09:57:34 10° E daylight
03 Sep - 11:56:19 10° W 12:03:45 81° S 12:08:15 10° E daylight
03 Sep - 14:10:38 10° W 14:15:09 45° SSW 14:18:43 10° SE daylight
